Home   Weather   St. Petersburg   Past weeks

Flag for USA Past Weather in St. Petersburg, Florida, USA — Yesterday and Last 2 Weeks

73 °F


Feels Like: 77 °F
Forecast: 65 / 75 °F
Wind: 7 mph from North

Location: Whitted Airport

Current Time: Oct 22, 2016 at 3:42:39 PM

Latest Report: Oct 22, 2016 at 2:53 PM

Visibility: 10 mi

Pressure: 29.97 "Hg

Humidity: 37%

Dew Point: 45 °F

Location of St. PetersburgLocation

Past Weather in St. Petersburg — Graph


St. Petersburg Temperature Yesterday

Maximum temperature yesterday: 82 °F (at 2:53 PM)
Minimum temperature yesterday: 72 °F (at 7:05 AM)
Average temperature yesterday: 77 °F

High & Low Weather Summary for the Past Weeks

High87 °F (Oct 17, 2:53 PM)97% (Oct 15, 7:53 AM)30.17 "Hg (Oct 15, 7:53 AM)
Low65 °F (Oct 22, 7:53 AM)33% (Oct 22, 1:53 PM)29.65 "Hg (Oct 7, 2:53 PM)
Average78 °F75%29.99 "Hg
* Reported Oct 7 1:53 PM — Oct 22 1:53 PM, St. Petersburg, Weather by CustomWeather, © 2016

Note: Actual official high and low records may vary slightly from our data, if they occured in-between our weather recording intervals... More about our weather records


St. Petersburg Weather History for the Previous 24 Hours

Scroll right to see more
Time TempWeatherWind HumidityBarometerVisibility
1:53 PM
Sat, Oct 22
73 °FSunny.10 mph33%30.00 "Hg10 mi
12:53 PM71 °FSunny.7 mph39%30.03 "Hg10 mi
11:53 AM69 °FSunny.9 mph47%30.04 "Hg10 mi
10:53 AM67 °FSunny.14 mph53%30.04 "Hg10 mi
9:53 AM66 °FSunny.17 mph56%30.04 "Hg10 mi
8:53 AM66 °FSunny.16 mph61%30.01 "Hg10 mi
7:53 AM65 °FSunny.21 mph59%29.98 "Hg10 mi
6:53 AM66 °FClear.15 mph59%29.96 "Hg10 mi
5:53 AM67 °FClear.15 mph57%29.93 "Hg10 mi
4:53 AM68 °FClear.16 mph53%29.91 "Hg10 mi
3:53 AM70 °FClear.18 mph51%29.90 "Hg10 mi
2:53 AM71 °FClear.14 mph49%29.90 "Hg10 mi
1:53 AM73 °FClear.10 mph51%29.90 "Hg10 mi
12:53 AM74 °FClear.8 mph53%29.88 "Hg10 mi
11:53 PM
Fri, Oct 21
74 °FClear.10 mph62%29.88 "Hg10 mi
10:53 PM74 °FClear.9 mph69%29.87 "Hg10 mi
9:53 PM75 °FClear.6 mph74%29.85 "Hg10 mi
8:53 PM76 °FClear.8 mph77%29.84 "Hg10 mi
7:53 PM77 °FPassing clouds.8 mph79%29.83 "Hg10 mi
6:53 PM78 °FScattered clouds.8 mph76%29.82 "Hg10 mi
5:53 PM80 °FSunny.9 mph69%29.80 "Hg10 mi
4:53 PM82 °FSunny.12 mph60%29.79 "Hg10 mi
3:53 PM82 °FScattered clouds.14 mph60%29.79 "Hg10 mi
Weather by CustomWeather, © 2016

See weather overviewHow to use our weather pages